Tracking 25689 objects as of 7-Jul-2022
HD Live streaming from Space Station
objects crossing your sky now

FENGYUN 1C DEB

Track FENGYUN 1C DEB now!
10-day predictions


NORAD ID: 31710
Int'l Code: 1999-025CDH
Perigee: 410.9 km
Apogee: 463.0 km
Inclination: 99.0 °
Period: 93.2 minutes
Semi major axis: 6807 km
RCS: 0.0102 m2 (small)
Launch date: May 10, 1999
Source: People's Republic of China (PRC)
Launch site: Taiyaun Space Center, China (TSC)

Note: This is SATELLITE DEBRIS
aabbcc
Your satellite tracking list
Your tracking list is empty




NASA's NSSDC Master Catalog

Two Line Element Set (TLE):
1 31710U 99025CDH 22188.00296597  .00069128  00000-0  13921-2 0  9990
2 31710  98.9567 271.0715 0038290 336.6322  23.3181 15.45534839821587
Source of the keplerian elements: AFSPC